Regional Weather Roundup
Issued by NWS

Home | Current Version | Previous Version | Graphics & Text | Print | Product List | Glossary On
Versions: 1 2 3 4 5 6 7 8 9 10 11 12 13 14 15 16 17 18 19 20 21 22 23 24 25 26 27 28 29 30 31 32 33 34 35 36 37 38 39 40 41 42 43 44 45 46 47 48 49 50
000
ASUS43 KIND 281209
RWRIN

WEATHER ROUNDUP FOR INDIANA
NATIONAL WEATHER SERVICE INDIANAPOLIS IN
800 AM EDT TUE MAR 28 2017

NOTE: "FAIR" INDICATES FEW OR NO CLOUDS BELOW 12,000 FEET WITH NO
SIGNIFICANT WEATHER AND/OR OBSTRUCTIONS TO VISIBILITY.

* - STATION DOES NOT REPORT WEATHER SUCH AS PRECIPITATION OR FOG.

+ - STATION NOT QUALITY CONTROLLED BY THE NATIONAL WEATHER SERVICE.
    USE DATA WITH CAUTION...ESPECIALLY DEWPOINT AND RELATIVE
    HUMIDITY OBSERVATIONS.

INZ001>003-010>013-019-020-281300-
NORTHWEST INDIANA

CITY           SKY/WX    TMP DP  RH WIND       PRES   REMARKS
GARY /AIRPORT/ CLOUDY    39  37  93 N8        30.07R
KNOX *+        CLOUDY    37  28  70 N9        30.02R
LA PORTE +     CLOUDY    38  37  94 N13       30.03R
6HR MIN TEMP:  38; 6HR MAX TEMP:  39;

MICHIGAN CITY+ CLOUDY    37  37 100 N8        30.05R
MONTICELLO +   CLOUDY    40  38  93 N12       30.01R
6HR MIN TEMP:  40; 6HR MAX TEMP:  48;

RENSSELAER +   CLOUDY    39  37  93 N9        30.04R
VALPARAISO     CLOUDY    40  37  89 N8        30.04R
6HR MIN TEMP:  39; 6HR MAX TEMP:  40;


$$

LMZ046-743>745-281300-
SOUTHERN LAKE MICHIGAN

STATION/POSITION TIME  TEMP    WIND        PRES    WAVE
                       AIR SEA DIR/SP/G            HT
                 (UTC) (F)     (DEG/KT/KT) (MB)    (FT)
BURNS HARBOR     1140   38     360/ 10/ 12 1017.9R
MICHIGAN CITY    1140   38     350/ 13/ 15   N/A

$$

INZ004-005-014>016-021>024-281300-
NORTH CENTRAL INDIANA

CITY           SKY/WX    TMP DP  RH WIND       PRES   REMARKS
ELKHART        MOCLDY    41  39  93 CALM      30.01R
GOSHEN         CLOUDY    45  40  82 N10       30.00R
6HR MIN TEMP:  44; 6HR MAX TEMP:  49;

LOGANSPORT +   MOCLDY    43  41  93 N10       30.01R
PERU/GRISSOM   CLOUDY    45  45 100 N9        29.98R
6HR MIN TEMP:  45; 6HR MAX TEMP:  53;

ROCHESTER +    CLOUDY    45  43  93 N8        30.01R FOG
SOUTH BEND     CLOUDY    39  38  96 NW8       30.02R
6HR MIN TEMP:  37; 6HR MAX TEMP:  41;

WARSAW +       CLOUDY    43  41  93 N8        30.00R

$$

INZ006>009-017-018-025>027-281300-
NORTHEAST INDIANA

CITY           SKY/WX    TMP DP  RH WIND       PRES   REMARKS
ANGOLA *+      CLOUDY    45  34  65 N6        29.98R
AUBURN +       CLOUDY    46  43  87 N9        29.98R
FORT WAYNE     CLOUDY    49  45  86 N10       29.97R FOG
6HR MIN TEMP:  49; 6HR MAX TEMP:  53; 6HR PCP:  0.01;

HUNTINGTON +   CLOUDY    46  45  95 N7        29.97R FOG
6HR MIN TEMP:  46; 6HR MAX TEMP:  52; 6HR PCP:  0.02;

KENDALLVILLE + CLOUDY    45  42  91 N8        29.98R

$$

INZ028-029-035-036-043>045-051>053-281300-
WEST CENTRAL INDIANA

CITY           SKY/WX    TMP DP  RH WIND       PRES   REMARKS
CRAWFORDSVL +  CLOUDY    43  43 100 NW6       29.99R
6HR MIN TEMP:  43; 6HR MAX TEMP:  51; 6HR PCP:  0.01;

GREENCASTLE +  CLOUDY    46  45  93 N6        29.99R FOG
LAFAYETTE      PTCLDY    40  39  97 N8        30.01R
6HR MIN TEMP:  40; 6HR MAX TEMP:  49;

TERRE HAUTE    CLOUDY    47  44  90 N7        29.98R
6HR MIN TEMP:  47; 6HR MAX TEMP:  56;


$$

INZ030>032-037>040-046>048-054>057-064-065-281300-
CENTRAL INDIANA

CITY           SKY/WX    TMP DP  RH WIND       PRES   REMARKS
CP ATTERBURY + CLOUDY    54  50  87 N8        29.94R
COLUMBUS       CLOUDY    54  54 100 N12       29.94R
FISHERS *+     CLOUDY    48  48 100 N3        29.96
FRANKFORT +    CLOUDY    47  45  91 N8        30.00R
6HR MIN TEMP:  47; 6HR MAX TEMP:  55;

GREENWOOD *+   CLOUDY    53  51  95 N9        29.95R
6HR MIN TEMP:  53; 6HR MAX TEMP:  56;

INDIANAPOLIS   CLOUDY    50  48  93 N8        29.96R FOG
6HR MIN TEMP:  50; 6HR MAX TEMP:  55; 6HR PCP:  0.01;

-EAGLE CREEK   CLOUDY    50  47  89 N7        29.95R
6HR MIN TEMP:  50; 6HR MAX TEMP:  56; 6HR PCP: TRACE;

KOKOMO +       CLOUDY    46  44  93 N12       29.99R
6HR MIN TEMP:  46; 6HR MAX TEMP:  53; 6HR PCP: TRACE;

MARION +       CLOUDY    48  46  92 N9        29.97R
MT COMFORT *+  CLOUDY    50  48  93 N12       29.95R
SHELBYVILLE    CLOUDY    54  50  86 N13       29.92R
6HR MIN TEMP:  54; 6HR MAX TEMP:  57; 6HR PCP:  0.01;

ZIONSVILLE +   CLOUDY    46  45  96 N8        29.97R FOG
6HR MIN TEMP:  46; 6HR MAX TEMP:  53; 6HR PCP:  0.01;


$$

INZ033-034-041-042-049-050-058-059-281300-
EAST CENTRAL INDIANA

CITY           SKY/WX    TMP DP  RH WIND       PRES   REMARKS
MUNCIE         CLOUDY    52  49  89 N9        29.94R FOG
6HR MIN TEMP:  52; 6HR MAX TEMP:  55; 6HR PCP:  0.08;

RICHMOND +     CLOUDY    50  50 100 N13       29.93R FOG

$$

INZ060-061-067>069-081>083-085>088-281300-
SOUTHWEST INDIANA

CITY           SKY/WX    TMP DP  RH WIND       PRES   REMARKS
EVANSVILLE     CLOUDY    57  53  86 N8        29.96R
6HR MIN TEMP:  56; 6HR MAX TEMP:  57; 6HR PCP: TRACE;

HUNTINGBURG *+ CLOUDY    55  55 100 N6        29.95R FOG
6HR MIN TEMP:  52; 6HR MAX TEMP:  55;

WASHINGTON +   CLOUDY    53  51  94 MISG      29.96R FOG
6HR MIN TEMP:  53; 6HR MAX TEMP:  56;


$$

INZ062-063-066-070>080-084-089>092-281300-
SOUTH CENTRAL AND SOUTHEAST INDIANA

CITY           SKY/WX    TMP DP  RH WIND       PRES   REMARKS
BEDFORD +      CLOUDY    55  52  88 N3        29.93R
BLOOMINGTON    CLOUDY    53  50  89 N9        29.96R FOG
6HR MIN TEMP:  53; 6HR MAX TEMP:  56; 6HR PCP: TRACE;

MADISON *+     CLOUDY    55  54  94 NW6       29.93R
NORTH VERNON + CLOUDY   N/A N/A N/A N5        29.91R HAZE
SEYMOUR +      CLOUDY    57  54  88 N10       29.93R

$$




USA.gov is the U.S. government's official web portal to all federal, state and local government web resources and services.